Powrót do katalogu

ONEWEB-0113

AktywnyŁącznośćPO
NORAD 48050·PAYLOAD·🇬🇧 United Kingdom

Wystrzelony Mar 25, 2021 z Vostochny Cosmodrome

Loading…

Następne Przeloty (najbliższe 24 godziny)

TLE

ŚwieżeSource: CelesTrak SupGP

Epoka: Sep 14, 2026, 15:59 UTC

1 48050C 21025J   26257.66614995  .00000143  00000+0  38923-3 0  2577
2 48050  87.8921 302.3224 0001962 101.2716 345.0924 13.13895404    12

Śledź ONEWEB-0113 w czasie rzeczywistym z AllMySat

Download on the App Store